Location: ??????
(55.5164°N, 37.9524°E)
Time: 12:12:18
(UTC+00:00)

Daily predictions for brighter satellites

Satellite Brightness Start Highest point End
(mag) Time Altitude Azimuth Time Altitude Azimuth Time Altitude Azimuth
CZ-2C R/B 3.8 17:43:51 10° NNE 17:48:26 59° ESE 17:52:54 10° S
COSMOS 2428 4.5 17:46:08 10° NNW 17:50:45 24° NNE 17:55:23 10° E
USA 267 4.2 17:45:43 10° ENE 17:50:47 23° SE 17:55:49 10° S
NOSS 3-2 (A) 4.0 17:46:15 10° S 17:51:30 36° ESE 17:57:24 10° ENE
Cosmos 614 Rocket 4.2 17:47:43 10° SSW 17:52:55 81° WNW 17:58:12 10° NNE
USA 186 4.3 17:52:21 10° WSW 17:53:04 11° W 17:53:48 10° WNW
OBJECT-B 2.0 17:50:06 10° S 17:53:17 45° W 17:56:29 10° NNW
Cosmos 1697 Rocket 4.2 17:49:53 10° NW 17:54:52 33° WSW 17:59:49 10° S
Cosmos 1833 Rocket 2.7 17:51:28 10° SSW 17:57:07 87° ESE 18:02:47 10° NE
Cosmos 1470 Rocket 4.0 17:53:48 10° SSE 17:57:56 41° E 18:02:02 10° NNE
Cosmos 2237 Rocket 4.4 17:56:35 10° NNW 18:00:36 19° NNE 18:04:34 10° ENE
NOSS 3-2 (C) 4.2 17:56:06 10° S 18:00:57 28° ESE 18:06:21 10° ENE
Meteor 1-4 Rocket 3.3 17:58:26 10° NNW 18:01:50 50° W 18:05:10 10° S
Sich 1 3.5 18:00:03 10° SSW 18:04:29 67° WNW 18:08:56 10° N
Cosmos 540 Rocket 4.0 18:00:09 10° NNW 18:05:10 47° NE 18:10:07 10° SE
SPOT 5 3.5 18:01:36 10° SE 18:05:34 36° ENE 18:09:40 10° N
Cosmos 1184 Rocket 2.9 18:03:26 10° S 18:06:40 57° E 18:09:56 10° NNE
Cosmos 1862 Rocket 3.8 18:03:18 10° NNW 18:07:47 77° W 18:12:12 10° S
Cosmos 1934 Rocket 4.1 18:01:55 10° S 18:08:17 78° E 18:14:39 10° NNE
Cosmos 2333 Rocket 3.6 18:04:30 10° NNW 18:09:35 30° NNE 18:14:39 10° E
SPOT 1/Viking Rocket 3.7 18:04:58 10° SSE 18:10:09 66° ENE 18:15:22 10° NNW
Cosmos 1437 Rocket 3.1 18:07:20 10° N 18:11:04 48° ENE 18:14:34 11° SE
Cosmos 405 Rocket 3.3 18:08:11 10° SSE 18:11:35 36° E 18:15:05 10° NNE
SL-27 R/B 4.1 18:13:03 12° SE 18:14:37 16° E 18:16:42 10° ENE
USA 32 4.1 18:09:54 10° S 18:15:04 64° E 18:20:16 10° NNE
Landsat 7 3.8 18:10:32 10° SSE 18:15:18 82° ENE 18:20:05 10° NNW
Resurs 01 Rocket 2.4 18:12:26 10° S 18:16:46 52° W 18:21:08 10° NNW
Cosmos 1515 4.0 18:14:58 10° N 18:18:45 53° ENE 18:22:10 12° SSE
ERBS 2.6 18:16:57 10° W 18:20:16 65° N 18:23:34 10° E
Cosmos 676 Rocket 4.0 18:15:05 10° SSW 18:20:24 72° ESE 18:25:45 10° NNE
Meteor 1-19 Rocket 4.2 18:14:58 10° NNW 18:20:26 73° ENE 18:25:54 10° SSE
ERS-1 Rocket 3.2 18:16:12 11° SE 18:21:00 57° ENE 18:25:57 10° N
OPS 6432 4.3 18:17:48 10° SW 18:21:31 61° SE 18:24:33 10° ENE
GP-B 3.1 18:17:10 10° N 18:21:39 83° E 18:26:06 10° S
Cosmos 841 Rocket 3.7 18:17:34 10° NNW 18:22:46 62° ENE 18:27:24 13° SE
Okean 1 3.3 18:22:20 10° NNW 18:26:26 86° E 18:30:28 10° SSE
USA 234 3.3 18:23:26 11° ESE 18:29:46 72° SSW 18:36:20 10° WNW
Cosmos 468 Rocket 4.3 18:24:51 10° NNW 18:30:09 68° WSW 18:35:20 10° SSE
ATLAS 3B R/B 3.8 18:27:31 11° SSE 18:31:44 20° ESE 18:36:16 10° ENE
Cosmos 1867 3.5 18:27:51 10° SW 18:33:18 77° SE 18:38:47 10° NE
CARTOSAT-1 3.6 18:29:48 13° SSE 18:33:36 67° ENE 18:37:55 10° N
Okean 3 4.3 18:32:54 10° N 18:36:56 37° ENE 18:39:55 16° SE
Meteor 2-4 Rocket 3.8 18:31:53 10° N 18:37:33 65° ENE 18:42:13 14° SSE
Cosmos 1933 Rocket 3.6 18:34:14 10° S 18:38:37 69° E 18:43:05 10° NNE
SL-4 R/B 2.1 18:38:09 10° WSW 18:41:54 44° S 18:44:49 14° ESE
IGS 5A 4.0 18:39:40 10° S 18:43:44 56° W 18:47:51 10° NNW
Cosmos 1814 Rocket 4.0 18:41:05 10° NNW 18:46:19 74° ENE 18:50:23 17° SE
CZ-2C R/B 4.2 18:42:36 10° N 18:47:21 37° WNW 18:52:06 10° SW
Meteor 1-14 Rocket 4.4 18:41:39 10° S 18:47:27 62° E 18:53:22 10° NNE
SL-16 R/B 2.5 18:41:56 10° NW 18:47:34 65° WSW 18:52:22 14° SSE
Iridium 4 Rocket 3.9 18:45:41 18° SE 18:48:11 32° E 18:51:54 10° NNE
Cosmos 2219 Rocket 3.2 18:43:07 10° NNW 18:48:28 40° NE 18:53:23 12° ESE
Cosmos 1869 Rocket 4.1 18:46:45 16° SSE 18:49:54 41° E 18:54:07 10° NNE
Cosmos 1954 Rocket 4.3 18:44:48 10° SSW 18:50:08 76° WNW 18:55:30 10° NNE
USA 238 DEB 3.6 18:43:45 10° SW 18:50:22 69° SE 18:57:19 10° NE
USA 238 3.6 18:43:52 10° SW 18:50:29 68° SE 18:57:26 10° NE
Spot 2 Rocket 4.1 18:45:50 10° S 18:50:50 56° WSW 18:55:52 10° NNW
BREEZE-M DEB (TANK) 3.3 18:51:15 10° WSW 18:54:20 44° S 19:02:50 10° ESE
Cosmos 1741 Rocket 4.1 18:49:35 10° S 18:54:43 57° ESE 18:59:55 10° NNE
Cosmos 2322 4.2 18:49:46 10° NNW 18:55:21 53° NE 18:59:44 16° ESE
Okean 1-7 3.1 18:51:14 10° NNW 18:55:34 76° W 18:59:08 15° S
Cosmos 1703 Rocket 3.8 18:52:01 10° NNW 18:56:21 68° W 19:00:06 13° S
Cosmos 1570 Rocket 4.1 18:52:51 10° NNW 18:58:12 79° WSW 19:02:16 18° SSE
CENTAUR R/B 2.7 18:55:14 10° SSW 19:01:12 55° SE 19:08:17 10° NE
Cosmos 2082 Rocket 2.8 18:55:37 10° SW 19:01:15 61° NW 19:06:53 10° NNE
Meteor 1-25 Rocket 4.5 18:56:20 10° SSW 19:01:55 73° WNW 19:07:37 10° NNE
Cosmos 1536 4.3 19:00:46 18° ESE 19:02:05 22° E 19:05:09 10° NE
Lacrosse 5 3.2 18:59:03 10° WNW 19:03:17 27° SW 19:06:26 15° S
Cosmos 1605 Rocket 4.2 18:58:34 10° SSW 19:04:40 70° WNW 19:10:46 10° N
Terra 1.8 19:01:13 19° SSE 19:04:42 82° ENE 19:09:30 10° NNW
Cosmos 2100 Rocket 4.1 19:00:45 14° S 19:06:01 60° E 19:12:05 10° NNE
Cosmos 2322 Rocket 2.6 19:00:46 10° NW 19:06:21 58° WSW 19:10:41 17° S
Cosmos 2208 Rocket 4.0 19:01:36 10° NNW 19:06:54 79° WSW 19:10:35 20° SSE
Cosmos 1763 Rocket 4.5 19:02:52 10° NW 19:07:54 42° WSW 19:12:26 12° S
Cosmos 1238 Rocket 3.3 19:06:06 10° SSW 19:08:55 41° WNW 19:11:52 10° N
Cosmos 2333 4.5 19:04:22 10° NNW 19:10:10 64° NE 19:14:16 19° SE
Cosmos 2173 Rocket 4.0 19:08:25 15° S 19:13:29 63° E 19:19:32 10° NNE
Cosmos 2237 4.3 19:08:22 10° NW 19:14:06 77° WSW 19:17:59 21° SSE
USA 276 3.9 19:12:26 10° WSW 19:14:39 18° SSW 19:14:46 17° SSW
SL-16 R/B 4.4 19:10:25 10° NNW 19:14:42 21° NNE 19:18:58 10° ENE
Cosmos 2360 Rocket 2.2 19:11:26 10° NW 19:17:08 79° WSW 19:20:54 22° SSE
Cosmos 1733 Rocket 4.1 19:20:26 24° SE 19:22:05 31° E 19:26:00 10° NNE
ALOS 2 4.3 19:20:18 14° E 19:22:52 23° ENE 19:26:19 10° N
FALCON 9 DEB 3.2 19:20:18 10° WSW 19:23:44 56° S 19:25:31 25° ESE
Cosmos 2084 Rocket 3.5 19:19:45 10° SSW 19:23:52 54° SE 19:28:05 10° ENE
Cosmos 1725 Rocket 4.4 19:20:03 21° SSE 19:23:59 46° E 19:30:00 10° NNE
Cosmos 44 4.4 19:20:44 10° WNW 19:25:11 36° WSW 19:28:10 19° S
Cosmos 1500 3.0 19:25:02 23° S 19:27:19 84° E 19:31:05 10° NNE
Cosmos 1459 Rocket 4.0 19:23:40 15° S 19:29:01 78° E 19:35:26 10° NNE
Cosmos 2016 Rocket 4.1 19:28:46 20° SSE 19:33:09 62° E 19:39:27 10° NNE
SAR-Lupe-2 3.6 19:29:52 10° NNE 19:33:29 79° WNW 19:35:52 20° SSW
USA 267 3.3 19:28:19 10° ENE 19:34:47 58° SSE 19:41:13 10° SW
Cosmos 2346 Rocket 4.4 19:28:49 10° NNW 19:34:55 89° E 19:38:55 23° S
MTI 4.4 19:32:07 10° NNE 19:35:02 35° E 19:35:16 34° ESE
COSMOS 2428 3.0 19:30:27 10° NNW 19:36:10 63° NE 19:39:52 22° SE
Cosmos 1356 3.7 19:37:15 38° SE 19:38:03 48° E 19:41:23 10° NNE
Cosmos 1666 2.8 19:37:05 35° SSE 19:38:22 53° E 19:42:03 10° NNE
Cosmos 44 Rocket 3.4 19:35:36 10° NW 19:40:35 78° NE 19:43:33 25° SE
Cosmos 1242 Rocket 2.5 19:37:41 10° N 19:41:21 72° ENE 19:42:36 38° SSE
Cosmos 2221 Rocket 3.7 19:37:10 10° NNW 19:41:38 75° W 19:44:04 27° S
NOSS 3-2 (A) 3.7 19:35:50 10° WSW 19:41:51 77° NW 19:48:53 10° NE
SPOT 5 3.8 19:40:39 16° SSW 19:43:41 36° W 19:47:50 10° NNW
Cosmos 2237 Rocket 3.2 19:40:55 10° NNW 19:46:15 40° NE 19:50:40 14° ESE
Cosmos 540 Rocket 4.5 19:41:57 10° NW 19:46:44 38° WSW 19:49:56 19° SSW
SL-27 R/B 3.0 19:46:34 13° SW 19:49:21 54° WNW 19:52:38 10° NNE
NOSS 3-2 (C) 3.5 19:45:04 10° SW 19:51:03 90° NNW 19:58:02 10° NE
Cosmos 836 Rocket 4.5 19:46:56 10° NNW 19:52:11 81° ENE 19:54:50 30° SSE
Cosmos 1378 3.4 19:48:52 10° N 19:52:34 55° ENE 19:53:40 38° SE
Cosmos 1743 3.8 19:53:16 27° ESE 19:53:53 29° E 19:57:18 10° NNE
Lacrosse 4 Rocket 2.1 19:53:39 33° SE 19:54:01 34° ESE 19:57:48 10° NE
Cosmos 1378 Rocket 3.7 19:50:04 10° N 19:54:31 63° ENE 19:56:17 34° SE
Cosmos 2333 Rocket 2.2 19:48:47 10° NW 19:54:36 90° NE 19:57:45 29° SSE
ERBS 2.1 19:53:20 10° WNW 19:56:40 80° SSW 19:57:24 50° ESE
Cosmos 2061 Rocket 3.9 19:52:30 21° S 19:56:48 84° E 20:03:02 10° NNE
Cosmos 1271 Rocket 2.9 19:55:26 10° N 19:59:12 58° ENE 20:00:19 39° SE
Cosmos 1066 Rocket 4.2 19:57:10 10° NNW 20:02:55 80° W 20:05:53 29° S
Meteor 1-11 Rocket 3.7 20:00:05 23° S 20:03:45 85° ESE 20:09:36 10° NNE
Cosmos 2233 Rocket 4.2 20:01:24 28° SSE 20:04:45 58° E 20:10:57 10° NNE
Cosmos 1802 Rocket 4.1 20:00:36 17° SSW 20:05:41 77° WNW 20:12:02 10° N
Cosmos 1544 4.3 20:13:03 26° E 20:13:17 27° E 20:16:25 10° NNE
USA 234 4.1 20:10:46 24° S 20:13:31 33° SW 20:19:19 10° WNW
Cosmos 1975 Rocket 4.0 20:10:08 10° N 20:14:23 39° ENE 20:16:03 28° ESE
Thor Agena Rocket 3.8 20:10:51 10° NNE 20:15:48 50° E 20:17:38 34° SSE
Cosmos 2344 4.3 20:07:52 10° NW 20:16:29 77° NNE 20:28:22 10° ESE
SL-4 R/B 2.5 20:17:35 10° W 20:20:23 35° SW 20:20:23 35° SW
ATLAS 3B R/B 2.5 20:14:47 10° SSW 20:21:19 68° SE 20:27:58 10° NE
COSMOS 2487 2.2 20:21:58 62° S 20:22:26 77° ESE 20:25:54 10° NNE
Spot 4 3.9 20:24:31 36° S 20:26:27 71° WSW 20:31:19 10° NNW
Iridium 4 Rocket 4.4 20:25:27 17° SW 20:28:10 33° WNW 20:31:58 10° N
Cosmos 2227 Rocket 4.2 20:27:48 12° ESE 20:28:46 13° E 20:31:10 10° ENE
SL-16 R/B 4.4 20:27:44 10° WNW 20:30:37 14° W 20:33:30 10° SW
Cosmos 2219 Rocket 2.4 20:27:08 10° NW 20:32:44 60° WSW 20:35:05 34° S
NOSS 0 Rocket 3.9 20:27:05 10° NW 20:33:23 90° NE 20:36:37 31° SE
Cosmos 1707 4.1 20:32:22 10° N 20:35:51 29° ENE 20:37:01 25° E
MOS 1-B Rocket 3.8 20:30:29 10° NNE 20:36:12 86° WNW 20:39:23 27° SSW
Cosmos 1025 Rocket 4.4 20:34:10 10° N 20:37:55 28° ENE 20:39:34 22° ESE
Cosmos 783 Rocket 4.4 20:32:54 10° NNW 20:38:11 90° WSW 20:40:19 37° SSE
Cosmos 1536 3.5 20:36:28 28° SW 20:38:13 48° WNW 20:42:07 10° N
Cosmos 2322 4.4 20:34:11 10° NW 20:39:27 40° WSW 20:41:39 29° SSW
ATLAS 5 CENTAUR R/B 3.7 20:36:39 10° W 20:39:28 24° SW 20:39:34 24° SW
Cosmos 1674 Rocket 4.3 20:35:23 10° NNW 20:39:31 44° W 20:41:02 31° SW
USA 238 DEB 4.4 20:34:57 10° W 20:41:38 56° NNW 20:48:39 10° NE
USA 238 4.4 20:35:04 10° W 20:41:44 56° NNW 20:48:45 10° NE
Terra 3.9 20:40:06 11° SW 20:43:04 18° W 20:46:22 10° NW
Cosmos 1833 4.2 20:42:36 20° SW 20:46:33 83° NW 20:52:17 10° NNE
DNEPR-1 R/B 4.2 20:41:03 10° NW 20:47:27 80° NE 20:50:24 28° SE
Cosmos 1842 3.2 20:43:29 10° N 20:47:28 84° E 20:48:12 57° SSE
EO 1 Del DPAF 3.1 20:44:22 10° NNE 20:48:09 77° ESE 20:48:44 60° S
Cosmos 2322 Rocket 4.4 20:46:54 10° WNW 20:49:15 13° W 20:51:35 10° WSW
Cosmos 1503 Rocket 4.2 20:48:41 39° SSE 20:50:26 56° ESE 20:55:42 10° NNE
Meteor 2-11 Rocket 4.4 20:48:24 33° S 20:51:18 83° E 20:57:28 10° NNE
CENTAUR R/B 3.2 20:45:29 10° WSW 20:51:55 63° NNW 20:59:37 10° NE
Sich 1 Rocket 4.4 20:53:36 33° ESE 20:54:28 36° E 20:58:30 10° NNE
Okean 2 3.4 20:50:38 10° NNW 20:54:46 75° W 20:55:39 52° S
Cosmos 1486 Rocket 3.9 20:53:33 32° SSW 20:56:01 88° WNW 21:01:17 10° NNE
ALOS 2 2.7 20:57:42 45° SSW 20:58:51 65° WSW 21:03:15 10° NNW
Cosmos 1733 Rocket 4.1 20:57:31 23° SW 20:59:48 40° WNW 21:04:01 10° N
SL-16 R/B 3.0 20:54:39 10° NNW 21:00:13 49° NE 21:04:29 17° ESE
Cosmos 2360 Rocket 4.0 20:56:34 10° WNW 21:00:17 18° W 21:02:39 14° SW
Meteor 1-21 4.2 20:57:20 10° NNW 21:03:11 85° WSW 21:05:34 38° S
Cosmos 2084 Rocket 4.5 20:59:20 10° W 21:03:29 47° NNW 21:07:43 10° NE
Cosmos 1975 2.7 21:08:00 59° S 21:08:42 79° E 21:12:46 10° NNE
Cosmos 773 Rocket 3.9 21:07:56 10° NNW 21:13:05 72° WSW 21:14:44 43° S
SL-24 DEB 4.2 21:09:12 10° N 21:14:01 90° SE 21:15:29 45° S
SL-16 R/B 4.2 21:09:01 10° ESE 21:14:14 29° NE 21:19:24 10° N
Cosmos 1536 Rocket 4.1 21:12:56 10° N 21:17:10 48° ENE 21:18:30 35° ESE
USA 267 3.3 21:11:31 10° ENE 21:18:06 86° N 21:24:40 10° W
COSMOS 2428 3.7 21:15:06 10° NW 21:20:11 33° WSW 21:21:52 28° SW
Cosmos 968 Rocket 3.6 21:18:04 29° SW 21:20:38 69° WNW 21:25:48 10° NNE
Cosmos 2297 Rocket 3.1 21:20:13 29° SE 21:21:36 33° ESE 21:26:35 10° NE
Cosmos 44 Rocket 4.5 21:17:34 10° WNW 21:21:45 27° WSW 21:22:15 27° SW
Cosmos 1980 3.8 21:16:43 10° NW 21:22:21 63° WSW 21:24:20 39° S
Meteor 2-9 Rocket 4.2 21:21:24 39° S 21:23:40 84° ESE 21:29:30 10° NNE
Helios 1A 2.9 21:22:59 54° S 21:23:54 82° WSW 21:28:10 10° NNW
Cosmos 1538 Rocket 3.9 21:18:53 10° NNW 21:24:05 86° WSW 21:25:57 41° SSE
Cosmos 1782 Rocket 3.5 21:23:22 51° SSW 21:24:25 84° WNW 21:28:48 10° N
Cosmos 1607 4.0 21:18:59 10° NW 21:25:28 88° SW 21:29:33 25° SE
In-Cosmos 22 4.2 21:23:19 10° NNW 21:28:56 73° ENE 21:31:14 36° SSE
Cosmos 1743 4.0 21:28:20 27° WSW 21:29:36 35° WNW 21:33:14 10° N
Cosmos 2237 Rocket 2.3 21:25:03 10° NW 21:30:37 59° WSW 21:32:28 40° S
Cosmos 1908 Rocket 4.3 21:30:25 31° WSW 21:31:59 45° WNW 21:36:12 10° N
Lacrosse 4 Rocket 2.2 21:29:55 20° WSW 21:32:37 48° NW 21:36:40 10° NE
Cosmos 2219 3.7 21:31:18 35° SSE 21:32:51 43° ESE 21:38:09 10° NE
Cosmos 2026 Rocket 4.4 21:27:13 10° N 21:33:13 56° ENE 21:36:35 26° SE
Cosmos 2333 Rocket 3.7 21:33:54 10° NW 21:38:11 22° WSW 21:39:44 20° SW
Timation 2 Rocket 3.9 21:41:09 37° S 21:43:36 67° ESE 21:49:33 10° NE
Cosmos 1544 4.3 21:47:21 29° W 21:48:12 33° WNW 21:51:37 10° N
Meteor 1-12 Rocket 4.4 21:45:54 36° S 21:48:23 70° E 21:54:24 10° NNE
Cosmos 158 Rocket 4.3 21:45:18 10° NNW 21:50:40 66° ENE 21:53:51 25° SE
Cosmos 1437 3.3 21:48:47 10° NNW 21:51:12 44° WNW 21:51:12 44° WNW
Cosmos 1975 Rocket 4.2 21:48:10 10° NNW 21:52:11 32° W 21:53:12 29° WSW
Cosmos 1634 Rocket 4.5 21:50:33 29° SSE 21:53:29 50° E 21:59:27 10° NNE
Cosmos 1354 Rocket 4.4 21:53:25 29° SW 21:56:07 62° WNW 22:01:26 10° NNE
Cosmos 1674 2.9 21:53:53 10° N 21:57:37 63° ENE 21:58:19 50° SE
Cosmos 1464 Rocket 4.2 21:54:49 31° SSW 21:57:50 65° WNW 22:04:01 10° N
Cosmos 1300 Rocket 3.4 21:57:17 53° S 21:58:16 84° E 22:02:37 10° NNE
Cosmos 1943 4.5 21:55:03 10° NNW 22:00:20 40° NE 22:05:37 10° ESE
Meteor 2-5 Rocket 4.1 21:57:12 10° N 22:02:48 60° ENE 22:05:56 26° SE
CZ-2D R/B 3.9 21:59:36 10° NE 22:03:51 22° E 22:06:57 14° SE
Cosmos 1680 Rocket 3.5 21:59:04 10° NNW 22:04:21 78° ENE 22:07:04 29° SE
Nadezhda 4 Rocket 4.3 21:58:44 10° NNW 22:04:50 53° W 22:07:27 33° SSW
Helios 1B rocket 2.8 22:03:48 10° NNE 22:07:50 52° ESE 22:08:43 43° SE
Cosmos 1428 Rocket 4.5 22:02:03 10° N 22:08:22 86° ENE 22:11:37 31° SSE
Cosmos 1766 4.4 22:10:01 28° ESE 22:10:57 32° E 22:14:26 10° NNE
Cosmos 2227 Rocket 2.4 22:09:37 37° S 22:11:41 59° ESE 22:17:16 10° NE
Cosmos 1707 3.6 22:08:10 10° NNW 22:11:46 35° W 22:12:09 34° WSW
ATLAS 3B R/B 3.3 22:05:50 10° W 22:12:18 54° NNW 22:18:56 10° NE
Meteor 2-13 Rocket 4.4 22:07:59 10° NNW 22:14:05 73° W 22:16:50 34° S
Okean 2 Rocket 3.2 22:12:54 44° SW 22:14:13 69° WNW 22:18:44 10° N
Cosmos 1777 Rocket 4.0 22:12:29 39° SSW 22:14:32 88° ESE 22:19:53 10° NNE
Cosmos 2219 Rocket 4.2 22:13:05 10° WNW 22:15:33 13° W 22:16:47 12° WSW
Cosmos 1025 Rocket 3.6 22:11:37 10° NNW 22:15:40 42° W 22:16:26 38° WSW
Okean 1 Rocket 3.6 22:14:30 37° SE 22:15:47 50° E 22:20:03 10° NNE
Meteor 1-29 3.8 22:13:37 10° NNE 22:16:55 39° E 22:17:19 37° ESE
SJ 16-02 2.3 22:18:08 30° SE 22:19:17 36° ESE 22:23:20 10° NE
Cosmos 1733 4.3 22:20:05 29° SE 22:21:05 34° E 22:24:37 10° NNE
CZ-4 R/B 3.9 22:17:23 10° NNE 22:22:25 89° ESE 22:24:20 39° SSW
Cosmos 1092 Rocket 4.2 22:18:20 10° NNW 22:24:27 59° W 22:27:10 33° SSW
NOSS 8 (A) 4.2 22:25:25 64° WNW 22:25:37 67° NW 22:28:42 10° NE
Cosmos 1626 2.6 22:23:35 10° N 22:27:16 56° ENE 22:28:26 38° SE
UNK 4.3 22:25:25 22° SE 22:28:18 54° ENE 22:32:53 10° N
Cosmos 2034 Rocket 4.4 22:26:37 28° SW 22:29:52 55° WNW 22:36:08 10° N
Okean 1-7 Rocket 4.5 22:25:41 10° N 22:29:56 44° ENE 22:32:39 20° SE
Landsat 4 3.9 22:27:13 10° N 22:31:00 62° WNW 22:31:50 47° WSW
Cosmos 724 4.3 22:26:09 10° NW 22:32:10 84° SW 22:38:08 11° SE
Cosmos 1805 3.4 22:32:35 46° SSE 22:33:31 62° E 22:37:23 10° NNE
Cosmos 923 Rocket 4.2 22:31:48 10° NW 22:36:59 53° WSW 22:38:48 36° SSW
Cosmos 2082 4.0 22:34:49 33° S 22:37:09 55° ESE 22:42:38 10° NE
Spot 1 3.8 22:39:25 40° SSE 22:40:51 90° SE 22:44:58 10° NNW
Resurs 1-4 Rocket 3.0 22:36:35 10° NNE 22:41:32 39° E 22:44:27 22° SSE
Cosmos 1455 Rocket 4.4 22:41:31 20° SE 22:43:47 33° E 22:47:48 10° NNE
CENTAUR R/B 4.0 22:37:07 10° WNW 22:43:51 47° N 22:51:41 10° ENE
SL-16 R/B 2.6 22:38:57 10° NW 22:44:22 45° WSW 22:46:18 33° SSW
Cosmos 2151 Rocket 4.1 22:45:26 33° WSW 22:46:56 47° WNW 22:51:13 10° N
SL-14 R/B 3.2 22:45:20 10° NNW 22:49:17 87° E 22:50:33 42° SSE
Cosmos 1892 Rocket 3.6 22:47:04 10° N 22:51:34 84° ENE 22:53:36 32° SSE
Cosmos 2263 Rocket 3.8 22:49:31 14° SE 22:52:43 24° ESE 22:57:02 10° NE
Cosmos 2098 Rocket 4.0 22:49:39 10° N 22:54:50 71° ENE 22:59:48 17° SSE
SL-16 R/B 2.5 22:52:56 22° SSE 22:57:17 84° WSW 23:03:35 10° NNW
CZ-4C R/B 3.1 22:58:24 38° SSE 22:59:41 82° ENE 23:03:24 10° NNW
NOSS 3-1 (C) 4.0 22:57:24 27° S 23:00:01 44° SE 23:06:09 10° NE
Cosmos 1655 Rocket 4.0 22:54:24 10° NNW 23:00:43 87° W 23:04:51 23° S
USA 267 3.3 22:54:33 10° E 23:01:07 82° N 23:07:41 10° WNW
DELTA 2 DEB (DPAF) 4.1 23:02:23 35° S 23:04:09 65° WSW 23:08:37 10° NNW
Uosat 12 SS-18 rocket 4.3 23:02:10 26° WSW 23:04:44 69° NW 23:09:05 10° NE
Cosmos 2297 Rocket 2.5 23:02:01 25° SW 23:05:22 63° NW 23:11:01 10° NNE
Meteor 1-15 Rocket 4.4 23:05:38 29° SW 23:08:31 63° WNW 23:14:04 10° N
Lacrosse 4 Rocket 3.9 23:09:13 10° WNW 23:12:12 18° NNW 23:15:10 10° NNE
Cosmos 2237 Rocket 4.1 23:11:10 10° WNW 23:13:31 13° W 23:14:16 12° WSW
Meteor 1-24 Rocket 3.7 23:08:48 10° NNW 23:14:08 57° W 23:16:49 28° SSW
ADEOS II 3.4 23:10:34 10° NNE 23:15:19 33° E 23:19:38 12° SSE
Cosmos 1461 3.1 23:13:38 34° SSW 23:15:31 72° SE 23:20:09 10° NE
Cosmos 2219 3.8 23:13:13 19° WSW 23:17:01 50° NW 23:22:30 10° NNE
IRAS Rocket 4.3 23:16:04 25° S 23:19:19 60° WSW 23:24:55 10° NNW
Cosmos 2279 Rocket 4.1 23:20:54 26° SSW 23:24:35 69° WNW 23:30:49 10° N
SL-24 R/B 4.5 23:21:42 23° S 23:24:56 89° W 23:30:24 10° N
Cosmos 1603 3.7 23:19:15 10° NW 23:24:59 68° WSW 23:30:32 10° SSE
BREEZE-M TANK 4.3 23:25:51 18° SSE 23:25:51 18° SSE 23:28:40 10° SE
Cosmos 1937 Rocket 3.8 23:24:35 24° S 23:27:42 63° ESE 23:32:58 10° NNE
GEOS 3 Rocket 4.3 23:22:36 10° NE 23:27:48 45° SE 23:30:53 23° S
Cosmos 1726 3.4 23:27:44 16° SSE 23:30:07 34° E 23:33:28 10° NNE
Cosmos 1544 Rocket 3.9 23:28:26 22° S 23:31:11 63° E 23:35:36 10° NNE
Cosmos 990 Rocket 3.9 23:29:02 27° SSW 23:31:57 89° ESE 23:37:10 10° NNE
Cosmos 2180 Rocket 4.5 23:28:40 24° SSW 23:32:32 74° WNW 23:38:43 10° N
CZ-4B R/B 3.9 23:29:44 10° NNE 23:34:23 51° E 23:37:48 18° S
USA 229 DEB 3.9 23:32:46 23° SSW 23:37:00 62° SE 23:43:53 10° NE
USA 229 3.9 23:32:52 23° SSW 23:37:05 62° SE 23:43:56 10° NE
Cosmos 1758 3.4 23:36:38 24° S 23:38:54 72° E 23:42:55 10° NNE
Cosmos 1340 Rocket 2.8 23:37:29 26° S 23:39:35 77° ESE 23:43:33 10° NNE
COBE Rocket 3.7 23:36:41 19° S 23:40:01 76° WSW 23:44:43 10° NNW
Helios 1B rocket 4.0 23:39:31 10° N 23:42:51 24° WNW 23:45:01 16° WSW
Cosmos 1898 Rocket 3.5 23:39:48 24° SSW 23:42:59 83° WNW 23:48:13 10° NNE
CZ-2D R/B 2.2 23:39:02 10° NNE 23:44:33 80° WNW 23:48:16 21° SSW
Cosmos 1943 3.2 23:39:09 10° NW 23:44:41 59° WSW 23:50:11 10° SSE
ARIANE 5 R/B 4.0 23:40:30 10° NNE 23:45:12 32° E 23:49:52 10° SSE
Meteor 2-14 Rocket 4.4 23:39:53 10° NNW 23:46:00 87° ENE 23:52:05 10° S
NOSS 2-3 (C) 4.4 23:44:18 23° S 23:46:49 46° SE 23:51:54 10° NE
Cosmos 1602 Rocket 3.5 23:42:31 10° N 23:46:56 84° ENE 23:50:50 13° SSE
Cosmos 1766 4.4 23:45:23 22° WSW 23:47:02 31° WNW 23:50:32 10° N
Cosmos 1703 4.2 23:43:40 10° N 23:47:34 49° ENE 23:51:24 10° SSE
NOSS 3-1 (A) 3.8 23:44:33 21° SSW 23:48:15 54° SE 23:54:43 10° NE
SL-08 R/B 3.7 23:43:24 10° SSE 23:48:19 70° ENE 23:53:15 10° NNW
Meteor 1-22 Rocket 4.4 23:50:36 22° SW 23:53:55 54° WNW 23:59:16 10° N
Okean 1 Rocket 4.5 23:51:41 17° WSW 23:53:58 26° WNW 23:57:40 10° N
Cosmos 1953 2.8 23:52:42 16° S 23:55:48 58° E 23:59:49 10° NNE
